{"data":{"norad_id":63065,"intl_designator":"2025-035P","name":"STARLINK-33635","alt_names":[],"object_type":"PAYLOAD","status":"ACTIVE","operator":null,"country":"US","launch_date":"2025-02-21","launch_site_code":"AFETR","launch_vehicle":null,"mission":null,"orbit_class":"UNKNOWN","rcs_meters":null,"size_class":null,"mass_kg":null,"dimensions":null,"purposes":["comms"],"wikipedia_slug":null,"has_3d_model":false,"image_url":null,"decayed_at":null,"tle_current":{"epoch":"2026-09-21T00:32:11.008896Z","epoch_age_seconds":117177,"freshness":"FRESH","line1":"1 63065U 25035P   26264.02234964  .00015576  00000+0  57410-3 0  9998","line2":"2 63065  43.0005 123.9170 0001656 270.3747  89.6915 15.27593709 89604","mean_motion":15.27593709,"eccentricity":0.0001656,"inclination_deg":43.0005,"raan_deg":123.917,"arg_perigee_deg":270.3747,"mean_anomaly_deg":89.6915,"bstar":0.0005741,"rev_number":8960,"period_min":94.265902740766,"perigee_km":481.87184104913,"apogee_km":484.14425228859,"semimajor_km":6861.1450466689,"source":"CELESTRAK","updated_at":"2026-09-22T09:00:49.753232Z"}}}